Flag for U.S.A. Weather past 2 weeks in Idaho Falls, Idaho, U.S.A.

Now
60 °F

Scattered clouds.


Feels Like: 60 °F
Forecast: 52 / 65 °F
Wind: 7 mph from Northwest

Location: Fanning Field

Current Time: Aug 22, 2014 at 1:58:14 PM

Latest Report: Aug 22, 2014 at 12:53 PM


Visibility: 10 mi

Pressure: 29.99 "Hg

Humidity: 78%

Dew point: 53 °F

Location of Idaho FallsLocation

Historic Weather in Idaho Falls — Graph

°F

Idaho Falls temperature yesterday

Maximum temperature yesterday: 73 °F (at 3:53 PM)
Minimum temperature yesterday: 55 °F (at 9:53 PM)
Average temperature yesterday: 61 °F

Past Weeks' High & Low Weather Summary

 TemperatureHumidityPressure
High92 °F (Aug 11, 2:53 PM)97% (Aug 9, 4:53 AM)30.20 "Hg (Aug 9, 4:53 AM)
Low48 °F (Aug 17, 6:53 AM)14% (Aug 11, 3:53 PM)29.71 "Hg (Aug 19, 5:53 PM)
Average67 °F60%29.99 "Hg
* Reported Aug 7 12:53 PM — Aug 22 12:53 PM, Idaho Falls, Weather by CustomWeather, © 2014

Note: Actual official high and low records may vary slightly from our data, if they occured in-between our weather recording intervals... More about our weather records

Advertising

Idaho Falls weather history for previous 24 hours

 ConditionsComfort  
Time TempWeatherWind HumidityBarometerVisibility
12:53 PM
Aug 22
60 °FScattered clouds.7 mph78%29.99 "Hg10 mi
11:53 AM58 °FMostly cloudy.3 mph78%29.98 "Hg10 mi
10:53 AM58 °FOvercast.9 mph87%30.01 "Hg10 mi
9:53 AM58 °FBroken clouds.13 mph81%29.97 "Hg10 mi
8:53 AM55 °FLight rain. Mostly cloudy.17 mph93%30.00 "Hg10 mi
7:53 AM53 °FPassing clouds.9 mph93%30.01 "Hg10 mi
6:53 AM56 °FClear.3 mph81%29.96 "Hg10 mi
5:53 AM52 °FPassing clouds.3 mph97%29.99 "Hg10 mi
4:53 AM52 °FClear.8 mph93%29.95 "Hg10 mi
3:53 AM51 °FClear.6 mph96%29.98 "Hg10 mi
2:53 AM51 °FClear.5 mph89%29.99 "Hg10 mi
1:53 AM51 °FClear.No wind92%30.00 "Hg10 mi
12:53 AM56 °FClear.6 mph84%30.01 "Hg10 mi
11:53 PM
Aug 21
57 °FPassing clouds.9 mph83%30.01 "Hg10 mi
10:53 PM56 °FLight rain. Mostly cloudy.12 mph90%30.03 "Hg10 mi
10:02 PM55 °FRain. Fog.7 mph93%30.14 "Hg5 mi
9:53 PM55 °FThundershowers. Overcast.6 mph93%30.09 "Hg8 mi
8:53 PM62 °FThundershowers. Overcast.24 mph67%29.99 "Hg10 mi
7:53 PM63 °FPassing clouds.8 mph65%29.96 "Hg10 mi
6:53 PM62 °FLight rain. Broken clouds.No wind70%29.97 "Hg10 mi
5:53 PM61 °FThunderstorms. Partly sunny.17 mph58%30.00 "Hg10 mi
4:53 PM73 °FPartly sunny.8 mph46%29.94 "Hg10 mi
3:53 PM73 °FPartly sunny.9 mph44%29.94 "Hg10 mi
2:53 PM72 °FScattered clouds.5 mph46%29.97 "Hg10 mi
1:53 PM70 °FPartly sunny.6 mph53%30.00 "Hg10 mi
Weather by CustomWeather, © 2014

See weather overviewHow to use our weather pages